Time_in_sec,Latitude,Longitude,Altitude,Nbsat_max_qualitysignal,Nbsat_locked,valid_data
1314892491.14146709,46.54719543,8.71086788,1977.48974609,7,8,1
1314892593.69260645,46.54722595,8.71089077,1976.17663574,6,9,1
1314892593.74468470,46.54722595,8.71089077,1976.16845703,6,9,1
1314892593.79246068,46.54722595,8.71089077,1976.16027832,6,9,1
1314892593.84444046,46.54722595,8.71089077,1976.15209961,6,9,1
1314892593.89260697,46.54722595,8.71089172,1976.16503906,6,9,1
1314892593.94450521,46.54722595,8.71089172,1976.17431641,6,9,1
1314892593.99253416,46.54722595,8.71089172,1976.16613770,6,9,1
1314892594.04560852,46.54722595,8.71089172,1976.15808105,6,9,1
1314892594.09250093,46.54722595,8.71089172,1976.14990234,6,9,1
1314892594.14552760,46.54722595,8.71089268,1976.16906738,6,9,1
1314892594.19359446,46.54722595,8.71089268,1976.17565918,6,9,1
1314892594.24562693,46.54722595,8.71089268,1976.16772461,6,9,1
1314892594.29361510,46.54722595,8.71089268,1976.15966797,6,9,1
1314892594.34550762,46.54722595,8.71089268,1976.15148926,6,9,1
1314892594.39258409,46.54722595,8.71089363,1976.17822266,6,9,1
1314892594.44160151,46.54722595,8.71089363,1976.18347168,6,9,1
1314892594.49261642,46.54722595,8.71089363,1976.17553711,6,9,1
1314892594.54461122,46.54722595,8.71089363,1976.16760254,6,9,1
1314892594.59257150,46.54722595,8.71089363,1976.15966797,6,9,1
1314892594.64160824,46.54722595,8.71089458,1976.20971680,6,9,1
1314892594.69262576,46.54722595,8.71089458,1976.20190430,6,9,1
1314892594.74461865,46.54722595,8.71089458,1976.19421387,6,9,1
1314892594.79262972,46.54722595,8.71089458,1976.18640137,6,9,1
1314892594.84160781,46.54722595,8.71089458,1976.17846680,6,9,1
1314892594.89259076,46.54722595,8.71089554,1976.23217773,6,9,1
1314892594.94464850,46.54722595,8.71089554,1976.22460938,6,9,1
1314892594.99258804,46.54722595,8.71089554,1976.21691895,6,9,1
1314892595.04553461,46.54722595,8.71089554,1976.20935059,6,9,1
1314892595.09244776,46.54722214,8.71089554,1976.20166016,6,9,1
1314892595.14544868,46.54722214,8.71089554,1976.19396973,6,9,1
1314892595.19243813,46.54722595,8.71089554,1976.24621582,6,9,1
1314892595.24444795,46.54722595,8.71089554,1976.23876953,6,9,1
1314892595.29249072,46.54722214,8.71089554,1976.23132324,6,9,1
1314892595.34552455,46.54722214,8.71089554,1976.22375488,6,9,1
1314892595.39256477,46.54722214,8.71089554,1976.21618652,6,9,1
1314892595.44544888,46.54722214,8.71089649,1976.26745605,6,9,1
1314892595.49251652,46.54722214,8.71089649,1976.26013184,6,9,1
1314892595.54448080,46.54722214,8.71089649,1976.25280762,6,9,1
1314892595.59252501,46.54722214,8.71089649,1976.24548340,6,9,1
1314892595.64449716,46.54722214,8.71089649,1976.27893066,6,9,1
1314892595.69250655,46.54722214,8.71089649,1976.29174805,6,9,1
1314892595.74512696,46.54722214,8.71089649,1976.28466797,6,9,1
1314892595.79252028,46.54722214,8.71089649,1976.27758789,6,9,1
1314892595.84520960,46.54722214,8.71089649,1976.27038574,6,9,1
1314892595.89260840,46.54722214,8.71089649,1976.32690430,6,9,1
1314892595.94149947,46.54722214,8.71089649,1976.32006836,6,9,1
1314892595.99246287,46.54722214,8.71089649,1976.31323242,6,9,1
1314892596.04151797,46.54722214,8.71089649,1976.30627441,6,9,1
1314892596.09260702,46.54722214,8.71089649,1976.29943848,6,9,1
1314892596.14160323,46.54722214,8.71089649,1976.32788086,6,9,1
1314892596.19261956,46.54722214,8.71089649,1976.33984375,6,9,1
1314892596.24534941,46.54722214,8.71089649,1976.33312988,6,9,1
1314892596.29251170,46.54722214,8.71089649,1976.32641602,6,9,1
1314892596.34458590,46.54722214,8.71089649,1976.31970215,6,9,1
1314892596.39266348,46.54722214,8.71089649,1976.35473633,6,9,1
1314892596.44458437,46.54722214,8.71089649,1976.34814453,6,9,1
1314892596.49250674,46.54722214,8.71089649,1976.34155273,6,9,1
1314892596.54496026,46.54722214,8.71089649,1976.33496094,6,9,1
1314892596.59304094,46.54722214,8.71089649,1976.32836914,6,9,1
1314892596.64457440,46.54722214,8.71089649,1976.33874512,6,9,1
1314892596.69260240,46.54722214,8.71089649,1976.35021973,6,9,1
1314892596.74463773,46.54722214,8.71089649,1976.34362793,6,9,1
1314892596.79360509,46.54722214,8.71089649,1976.33715820,6,9,1
1314892596.84457755,46.54722214,8.71089649,1976.33056641,6,8,1
1314892596.89261818,46.54722214,8.71089649,1976.35327148,6,8,1
1314892596.94458246,46.54722214,8.71089649,1976.34680176,6,8,1
1314892596.99360108,46.54722214,8.71089649,1976.34033203,6,8,1
1314892597.04462552,46.54722214,8.71089649,1976.33374023,6,8,1
1314892597.09359407,46.54722214,8.71089649,1976.32727051,6,8,1
1314892597.14504910,46.54722214,8.71089649,1976.32214355,6,8,1
1314892597.19258165,46.54722214,8.71089649,1976.33068848,6,8,1
1314892597.24459505,46.54722214,8.71089649,1976.32421875,6,8,1
1314892597.29358530,46.54722214,8.71089649,1976.31774902,6,8,1
1314892597.34552360,46.54722214,8.71089649,1976.31115723,6,8,1
1314892597.39258480,46.54722214,8.71089649,1976.29882812,6,8,1
1314892597.44551921,46.54722214,8.71089649,1976.30810547,6,8,1
1314892597.49245858,46.54722214,8.71089649,1976.30163574,6,8,1
1314892597.54460239,46.54722214,8.71089649,1976.29504395,6,8,1
1314892597.59361529,46.54722214,8.71089649,1976.28845215,6,8,1
1314892597.64549184,46.54722214,8.71089649,1976.27026367,6,8,1
1314892597.69262171,46.54722214,8.71089649,1976.28417969,6,8,1
1314892597.74457836,46.54722214,8.71089649,1976.27758789,6,8,1
1314892597.79257941,46.54722214,8.71089649,1976.27099609,6,8,1
1314892597.84457421,46.54722214,8.71089649,1976.26428223,6,8,1
1314892597.89248848,46.54722214,8.71089649,1976.23681641,6,8,1
1314892597.94459534,46.54722214,8.71089649,1976.24804688,6,8,1
1314892597.99260306,46.54722214,8.71089649,1976.24145508,6,8,1
1314892598.04459834,46.54722214,8.71089554,1976.23474121,6,8,1
1314892598.09247780,46.54722214,8.71089554,1976.22814941,6,8,1
1314892598.14449763,46.54722214,8.71089554,1976.19079590,6,8,1
1314892598.19148588,46.54722214,8.71089554,1976.19873047,6,8,1
1314892598.24149323,46.54722214,8.71089554,1976.19201660,6,8,1
1314892598.29251623,46.54722214,8.71089554,1976.18518066,6,8,1
1314892598.34549880,46.54722214,8.71089554,1976.17834473,6,8,1
1314892598.39259386,46.54722214,8.71089554,1976.17138672,6,8,1
1314892598.44152117,46.54722214,8.71089554,1976.14916992,6,8,1
1314892598.49245834,46.54722214,8.71089554,1976.14221191,6,8,1
1314892598.54448605,46.54722214,8.71089554,1976.13525391,6,8,1
1314892598.59247661,46.54722214,8.71089554,1976.12817383,6,8,1
1314892598.64451051,46.54722214,8.71089554,1976.07250977,6,8,1
1314892598.69360495,46.54722214,8.71089458,1976.08251953,6,8,1
1314892598.74153090,46.54722214,8.71089458,1976.07543945,6,8,1
1314892598.79248285,46.54722214,8.71089458,1976.06823730,6,8,1
1314892598.84451389,46.54722214,8.71089458,1976.06115723,6,8,1
1314892598.89250016,46.54722214,8.71089458,1976.02026367,8,9,1
1314892598.94451904,46.54722214,8.71089458,1976.01306152,8,9,1
1314892598.99452829,46.54722214,8.71089458,1976.00573730,8,9,1
1314892599.04449058,46.54722214,8.71089458,1975.99841309,8,9,1
1314892599.09352851,46.54722214,8.71089458,1975.99096680,8,9,1
1314892599.14297056,46.54722214,8.71089363,1975.92565918,8,9,1
1314892599.19258523,46.54722214,8.71089458,1975.93603516,8,9,1
1314892599.24612570,46.54722214,8.71089363,1975.92846680,8,9,1
1314892599.29258132,46.54722214,8.71089363,1975.92089844,8,9,1
1314892599.34451222,46.54722214,8.71089363,1975.91320801,8,9,1
1314892599.39363813,46.54722214,8.71089363,1975.84082031,8,9,1
1314892599.44559622,46.54722214,8.71089363,1975.85009766,8,9,1
1314892599.49261761,46.54722214,8.71089363,1975.84228516,8,9,1
1314892599.54448962,46.54722214,8.71089363,1975.83459473,8,9,1
1314892599.59355307,46.54722214,8.71089363,1975.82666016,8,9,1
1314892599.64561796,46.54722214,8.71089363,1975.81884766,8,9,1
1314892599.69257092,46.54722214,8.71089363,1975.75598145,8,9,1
1314892599.74561977,46.54722214,8.71089363,1975.74804688,8,9,1
1314892599.79363751,46.54722214,8.71089363,1975.73999023,8,9,1
1314892599.84459734,46.54722214,8.71089363,1975.73181152,8,9,1
1314892599.89360976,46.54722214,8.71089268,1975.72375488,8,9,1
1314892599.94492888,46.54722214,8.71089268,1975.65588379,8,9,1
1314892599.99360991,46.54722214,8.71089268,1975.64758301,8,9,1
1314892600.04450393,46.54722214,8.71089268,1975.63916016,8,9,1
1314892600.09247708,46.54722214,8.71089268,1975.63085938,8,9,1
1314892600.14460945,46.54722214,8.71089268,1975.62243652,8,9,1
1314892600.19363284,46.54722214,8.71089268,1975.54711914,8,9,1
1314892600.24549866,46.54722214,8.71089268,1975.53845215,8,9,1
1314892600.29263735,46.54722214,8.71089268,1975.52978516,8,9,1
1314892600.34549236,46.54722214,8.71089172,1975.52099609,8,9,1
1314892600.39362621,46.54722214,8.71089172,1975.51232910,8,9,1
1314892600.44458985,46.54722214,8.71089172,1975.42858887,8,9,1
1314892600.49258351,46.54722214,8.71089172,1975.41967773,8,9,1
1314892600.54453039,46.54722214,8.71089172,1975.41052246,8,9,1
1314892600.59361124,46.54722214,8.71089172,1975.40148926,8,9,1
1314892600.64179039,46.54722214,8.71089172,1975.39233398,8,9,1
1314892600.69353151,46.54722214,8.71089172,1975.30957031,8,9,1
1314892600.74458313,46.54722214,8.71089172,1975.30017090,8,9,1
1314892600.79248476,46.54722214,8.71089172,1975.29077148,8,9,1
1314892600.84458351,46.54722214,8.71089172,1975.28125000,8,9,1
1314892600.89263105,46.54722214,8.71089077,1975.27185059,8,9,1
1314892600.94557023,46.54722214,8.71089172,1975.19091797,8,9,1
1314892600.99265766,46.54722214,8.71089077,1975.18127441,8,9,1
1314892601.04583359,46.54722214,8.71089077,1975.17150879,8,9,1
1314892601.09517813,46.54722214,8.71089077,1975.16174316,8,9,1
1314892601.14450026,46.54722214,8.71089077,1975.15185547,8,9,1
1314892601.19292879,46.54722214,8.71089077,1975.07690430,8,9,1
1314892601.24554276,46.54722214,8.71089077,1975.06689453,8,9,1
1314892601.29246759,46.54722214,8.71089077,1975.05676270,8,9,1
1314892601.34485674,46.54722214,8.71089077,1975.04675293,8,9,1
1314892601.39259601,46.54722214,8.71089077,1975.03662109,8,9,1
1314892601.44552207,46.54722214,8.71088982,1974.96813965,8,9,1
1314892601.49348187,46.54722214,8.71088982,1974.95776367,8,9,1
1314892601.54461741,46.54722214,8.71088982,1974.94738770,8,9,1
1314892601.59344912,46.54721832,8.71088982,1974.93701172,8,9,1
1314892601.64451623,46.54721832,8.71088982,1974.92663574,8,9,1
1314892601.69349980,46.54722214,8.71088982,1974.86596680,8,9,1
1314892601.74562812,46.54722214,8.71088982,1974.85534668,8,9,1
1314892601.79361510,46.54721832,8.71088982,1974.84472656,8,9,1
1314892601.84547949,46.54721832,8.71088982,1974.83398438,8,9,1
1314892601.89258146,46.54721832,8.71088886,1974.82336426,8,9,1
1314892601.94591308,46.54722214,8.71088982,1974.77429199,8,9,1
1314892601.99350190,46.54722214,8.71088886,1974.76354980,8,9,1
1314892602.04154015,46.54721832,8.71088886,1974.75268555,8,9,1
1314892602.09348559,46.54721832,8.71088886,1974.74182129,8,9,1
1314892602.14156151,46.54721832,8.71088886,1974.73083496,8,9,1
1314892602.19352746,46.54721832,8.71088982,1974.69287109,8,9,1
1314892602.24451685,46.54721832,8.71088886,1974.68188477,8,9,1
1314892602.29352379,46.54721832,8.71088886,1974.67077637,8,9,1
1314892602.34545779,46.54721832,8.71088886,1974.65979004,8,9,1
1314892602.39359832,46.54721832,8.71088886,1974.64868164,8,9,1
1314892602.44548416,46.54721832,8.71088886,1974.61938477,8,9,1
1314892602.49360299,46.54721832,8.71088886,1974.60815430,8,9,1
1314892602.54558635,46.54721832,8.71088886,1974.59704590,8,9,1
1314892602.59359312,46.54721832,8.71088886,1974.58581543,8,9,1
1314892602.64467502,46.54721832,8.71088791,1974.57458496,8,9,1
1314892602.69360495,46.54721832,8.71088886,1974.55932617,8,9,1
1314892602.74456167,46.54721832,8.71088886,1974.54797363,8,9,1
1314892602.79360747,46.54721832,8.71088886,1974.53674316,8,9,1
1314892602.84559321,46.54721832,8.71088791,1974.52551270,8,9,1
1314892602.89250708,46.54721832,8.71088791,1974.51416016,8,10,1
1314892602.94458318,46.54721832,8.71088886,1974.50854492,8,10,1
1314892602.99259877,46.54721832,8.71088791,1974.49731445,8,10,1
1314892603.04516482,46.54721832,8.71088791,1974.48596191,8,10,1
1314892603.09265137,46.54721832,8.71088791,1974.47460938,8,10,1
1314892603.14562321,46.54721832,8.71088791,1974.46325684,8,10,1
1314892603.19245696,46.54721832,8.71088791,1974.46691895,8,10,1
1314892603.24548244,46.54721832,8.71088791,1974.45568848,8,10,1
1314892603.29257870,46.54721832,8.71088791,1974.44445801,8,10,1
1314892603.34549665,46.54721832,8.71088791,1974.43310547,8,10,1
1314892603.39363337,46.54721832,8.71088791,1974.42175293,8,10,1
1314892603.44551778,46.54721832,8.71088791,1974.43591309,8,10,1
1314892603.49360228,46.54721832,8.71088791,1974.42468262,8,10,1
1314892603.54552507,46.54721832,8.71088791,1974.41345215,8,10,1
1314892603.59359097,46.54721832,8.71088791,1974.40209961,8,10,1
1314892603.64161420,46.54721832,8.71088791,1974.39074707,8,10,1
1314892603.69379711,46.54721832,8.71088791,1974.41479492,8,10,1
1314892603.74550962,46.54721832,8.71088791,1974.40356445,8,10,1
1314892603.79254413,46.54721832,8.71088791,1974.39233398,8,10,1
1314892603.84157085,46.54721832,8.71088791,1974.38110352,8,10,1
1314892603.89259195,46.54721832,8.71088791,1974.36987305,8,10,1
1314892603.94458032,46.54721832,8.71088791,1974.40380859,8,10,1
1314892603.99254894,46.54721832,8.71088791,1974.39282227,8,10,1
1314892604.04154444,46.54721832,8.71088791,1974.38171387,8,10,1
1314892604.09406924,46.54721832,8.71088696,1974.37060547,8,10,1
1314892604.14452553,46.54721832,8.71088696,1974.35949707,8,10,1
1314892604.19344497,46.54721832,8.71088696,1974.40637207,8,10,1
1314892604.24471092,46.54721832,8.71088696,1974.39550781,8,10,1
1314892604.29246926,46.54721832,8.71088696,1974.38464355,8,10,1
1314892604.34452724,46.54721832,8.71088696,1974.37377930,8,10,1
1314892604.39351130,46.54721832,8.71088696,1974.36279297,8,10,1
1314892604.44448662,46.54721451,8.71088696,1974.42053223,8,10,1
1314892604.49275684,46.54721451,8.71088696,1974.40991211,8,10,1
1314892604.54451823,46.54721451,8.71088600,1974.39916992,8,10,1
1314892604.59351683,46.54721451,8.71088600,1974.38854980,8,10,1
1314892604.64451814,46.54721451,8.71088600,1974.37780762,8,10,1
1314892604.69330549,46.54721451,8.71088600,1974.44799805,8,10,1
1314892604.74448705,46.54721451,8.71088600,1974.43762207,8,10,1
1314892604.79244566,46.54721451,8.71088600,1974.42724609,8,10,1
1314892604.84164596,46.54721451,8.71088600,1974.41674805,8,10,1
1314892604.89248180,46.54721451,8.71088600,1974.40637207,7,10,1
1314892604.94446540,46.54721451,8.71088600,1974.48010254,7,10,1
1314892604.99251866,46.54721451,8.71088600,1974.46997070,7,10,1
1314892605.04449749,46.54721451,8.71088600,1974.45983887,7,10,1
1314892605.09311152,46.54721451,8.71088600,1974.44958496,7,10,1
1314892605.14457822,46.54721451,8.71088600,1974.43933105,7,10,1
1314892605.19360995,46.54721451,8.71088600,1974.53283691,7,10,1
1314892605.24561453,46.54721451,8.71088600,1974.52307129,7,10,1
1314892605.29258561,46.54721451,8.71088600,1974.51330566,7,10,1
1314892605.34450650,46.54721451,8.71088505,1974.50354004,7,10,1
1314892605.39256549,46.54721451,8.71088505,1974.49377441,7,10,1
1314892605.44560146,46.54721451,8.71088600,1974.58801270,7,10,1
1314892605.49304461,46.54721451,8.71088600,1974.57861328,7,10,1
1314892605.54458094,46.54721451,8.71088505,1974.56921387,7,10,1
1314892605.59357047,46.54721451,8.71088505,1974.55981445,7,10,1
1314892605.64457941,46.54721451,8.71088505,1974.55041504,7,10,1
1314892605.69360065,46.54721451,8.71088600,1974.65002441,7,10,1
1314892605.74449539,46.54721451,8.71088505,1974.64111328,7,10,1
1314892605.79248428,46.54721451,8.71088505,1974.63208008,7,10,1
1314892605.84459710,46.54721451,8.71088505,1974.62304688,7,10,1
1314892605.89247680,46.54721451,8.71088505,1974.61389160,7,10,1
1314892605.94451308,46.54721451,8.71088600,1974.71777344,7,10,1
1314892605.99347329,46.54721451,8.71088600,1974.70910645,7,10,1
1314892606.04459095,46.54721451,8.71088600,1974.70043945,7,10,1
1314892606.09272981,46.54721451,8.71088505,1974.69177246,7,10,1
1314892606.14459133,46.54721451,8.71088505,1974.68298340,7,10,1
1314892606.19269490,46.54721451,8.71088600,1974.79248047,7,10,1
1314892606.24551344,46.54721451,8.71088505,1974.78430176,7,10,1
1314892606.29284763,46.54721451,8.71088505,1974.77612305,7,10,1
1314892606.34460473,46.54721451,8.71088505,1974.76794434,7,10,1
1314892606.39256811,46.54721451,8.71088505,1974.75964355,7,10,1
1314892606.44559765,46.54721451,8.71088505,1974.87341309,7,10,1
1314892606.49447322,46.54721451,8.71088505,1974.86572266,7,10,1
1314892606.54159999,46.54721451,8.71088505,1974.85791016,7,10,1
1314892606.59246492,46.54721451,8.71088505,1974.85009766,7,10,1
1314892606.64460659,46.54721451,8.71088505,1974.84228516,7,10,1
1314892606.69260907,46.54721451,8.71088505,1974.96411133,7,10,1
1314892606.74162126,46.54721451,8.71088505,1974.95678711,7,10,1
1314892606.79261899,46.54721069,8.71088505,1974.94946289,7,10,1
1314892606.84459138,46.54721069,8.71088505,1974.94213867,7,10,1
1314892606.89249444,46.54721069,8.71088505,1975.04785156,8,10,1
1314892606.94150853,46.54721069,8.71088505,1975.06591797,8,10,1
1314892606.99260306,46.54721069,8.71088505,1975.05908203,8,10,1
1314892607.04455256,46.54721069,8.71088505,1975.05224609,8,10,1
1314892607.09254503,46.54721069,8.71088505,1975.04528809,8,10,1
1314892607.14454794,46.54721069,8.71088505,1975.03845215,8,10,1
1314892607.19294906,46.54721069,8.71088600,1975.17187500,8,10,1
1314892607.24455118,46.54721069,8.71088600,1975.16552734,8,10,1
1314892607.29328728,46.54721069,8.71088505,1975.15917969,8,10,1
1314892607.34143519,46.54721069,8.71088505,1975.15283203,8,10,1
1314892607.39267278,46.54721069,8.71088505,1975.14636230,8,10,1
1314892607.44547629,46.54721069,8.71088600,1975.28613281,8,10,1
1314892607.49257088,46.54721069,8.71088600,1975.28039551,8,10,1
1314892607.54451919,46.54721069,8.71088505,1975.27453613,8,10,1
1314892607.59249496,46.54721069,8.71088505,1975.26867676,8,10,1
1314892607.64151859,46.54721069,8.71088505,1975.26269531,8,10,1
1314892607.69386697,46.54721069,8.71088600,1975.39892578,8,10,1
1314892607.74455166,46.54721069,8.71088600,1975.39367676,8,10,1
1314892607.79350615,46.54721069,8.71088600,1975.38830566,8,10,1
1314892607.84127569,46.54721069,8.71088505,1975.38293457,8,10,1
1314892607.89258838,46.54721069,8.71088505,1975.37744141,8,10,1
1314892607.94549441,46.54721069,8.71088600,1975.51379395,8,10,1
1314892607.99319100,46.54721069,8.71088600,1975.50891113,8,10,1
1314892608.04549074,46.54721069,8.71088600,1975.50402832,8,10,1
1314892608.09414840,46.54721069,8.71088600,1975.49902344,8,10,1
1314892608.14459109,46.54721069,8.71088600,1975.49414062,8,10,1
1314892608.19360924,46.54721069,8.71088600,1975.63293457,8,10,1
1314892608.24458361,46.54721069,8.71088600,1975.62854004,8,10,1
1314892608.29265976,46.54721069,8.71088600,1975.62414551,8,10,1
1314892608.34525704,46.54721069,8.71088600,1975.61962891,8,10,1
1314892608.39355993,46.54721069,8.71088600,1975.61511230,8,10,1
1314892608.44539857,46.54721069,8.71088696,1975.76013184,8,10,1
1314892608.49285746,46.54721069,8.71088600,1975.75622559,8,10,1
1314892608.54525375,46.54721069,8.71088600,1975.75231934,8,10,1
1314892608.59291935,46.54721069,8.71088600,1975.74841309,8,10,1
1314892608.64552426,46.54721069,8.71088600,1975.74450684,8,10,1
1314892608.69259572,46.54721069,8.71088696,1975.89453125,8,10,1
1314892608.74446130,46.54721069,8.71088696,1975.89123535,8,10,1
1314892608.79258227,46.54721069,8.71088696,1975.88781738,8,10,1
1314892608.84463167,46.54721069,8.71088696,1975.88452148,8,10,1
1314892608.89260364,46.54721069,8.71088696,1976.01037598,7,10,1
1314892608.94460630,46.54721069,8.71088791,1976.02307129,7,10,1
1314892608.99248695,46.54721069,8.71088696,1976.02026367,7,10,1
1314892609.04496813,46.54721069,8.71088696,1976.01745605,7,10,1
1314892609.09261608,46.54721069,8.71088696,1976.01464844,7,10,1
1314892609.14461780,46.54721069,8.71088696,1976.01184082,7,10,1
1314892609.19369173,46.54721069,8.71088791,1976.16638184,7,10,1
1314892609.24499702,46.54721069,8.71088791,1976.16418457,7,10,1
1314892609.29258275,46.54721069,8.71088791,1976.16186523,7,10,1
1314892609.34463167,46.54720688,8.71088791,1976.15966797,7,10,1
1314892609.39266944,46.54720688,8.71088791,1976.15734863,7,10,1
1314892609.44463944,46.54720688,8.71088791,1976.32214355,7,10,1
1314892609.49361324,46.54720688,8.71088791,1976.32055664,7,10,1
1314892609.54552150,46.54720688,8.71088791,1976.31884766,7,10,1
1314892609.59260583,46.54720688,8.71088791,1976.31726074,7,10,1
1314892609.64171076,46.54720688,8.71088791,1976.31555176,7,10,1
1314892609.69262552,46.54720688,8.71088886,1976.48388672,7,10,1
1314892609.74471927,46.54720688,8.71088886,1976.48291016,7,10,1
1314892609.79250979,46.54720688,8.71088886,1976.48193359,7,10,1
1314892609.84508896,46.54720688,8.71088791,1976.48083496,7,10,1
1314892609.89259100,46.54720688,8.71088791,1976.47973633,7,10,1
1314892609.94158816,46.54720688,8.71088886,1976.64978027,7,10,1
1314892609.99259758,46.54720688,8.71088886,1976.64941406,7,10,1
1314892610.04462266,46.54720688,8.71088886,1976.64892578,7,10,1
1314892610.09345388,46.54720688,8.71088886,1976.64843750,7,10,1
1314892610.14455557,46.54720688,8.71088886,1976.64794922,7,10,1
1314892610.19350791,46.54720688,8.71088982,1976.82678223,7,10,1
1314892610.24451852,46.54720688,8.71088886,1976.82702637,7,10,1
1314892610.29250622,46.54720688,8.71088886,1976.82727051,7,10,1
1314892610.34146214,46.54720688,8.71088886,1976.82751465,7,10,1
1314892610.39432430,46.54720688,8.71088982,1976.98242188,7,10,1
1314892610.44252443,46.54720306,8.71088982,1977.00585938,7,10,1
1314892610.49420261,46.54720306,8.71088982,1977.00671387,7,10,1
1314892610.54458022,46.54720306,8.71088982,1977.00756836,7,10,1
1314892610.59258103,46.54720306,8.71088982,1977.00842285,7,10,1
1314892610.64457655,46.54720306,8.71088982,1977.16967773,7,10,1
1314892610.69248223,46.54720306,8.71089077,1977.19763184,7,10,1
1314892610.74456978,46.54720306,8.71089077,1977.19921875,7,10,1
1314892610.79245830,46.54720306,8.71089077,1977.20068359,7,10,1
1314892610.84458423,46.54720306,8.71089077,1977.20227051,7,10,1
1314892610.89251232,46.54720306,8.71089077,1977.39355469,7,9,1
1314892610.94243455,46.54720306,8.71089077,1977.39587402,7,9,1
1314892610.99214935,46.54720306,8.71089077,1977.39819336,7,9,1
1314892611.04160619,46.54720306,8.71089077,1977.40051270,7,9,1
1314892611.09248471,46.54720306,8.71089077,1977.40270996,7,9,1
1314892611.14461875,46.54720306,8.71089077,1977.40490723,7,9,1
1314892611.19245124,46.54720306,8.71089077,1977.61169434,7,9,1
1314892611.24451733,46.54720306,8.71089077,1977.61486816,7,9,1
1314892611.29348278,46.54720306,8.71089077,1977.61791992,7,9,1
1314892611.34508467,46.54719925,8.71089077,1977.62084961,7,9,1
1314892611.39255643,46.54719925,8.71089172,1977.80505371,7,9,1
1314892611.44460773,46.54719925,8.71089172,1977.83422852,7,9,1
1314892611.49345112,46.54719925,8.71089172,1977.83801270,7,9,1
